JHB123 GMMH-GVAC

Flight info

Callsign JHB123
Flight time N/A
Altitude FL320
Route ETIBA N857 GUNET UW11 PINPO PINP1F
Aircraft A306/H-VGDW/C

Departure

Time 2026-04-24 22:37
Airport Dakhla Airport (GMMH)

Arrival

Time N/A
Airport Amílcar Cabral International Airport (GVAC)
Time Latitude Longitude Altitude Speed Heading
2026-04-24 22:28 23.71391 -15.92949 42 ft 0 kts 338°
2026-04-24 22:32 23.71400 -15.92952 42 ft 6 kts 340°
2026-04-24 22:32 23.71445 -15.92974 42 ft 8 kts 326°
2026-04-24 22:32 23.71475 -15.93019 41 ft 7 kts 294°
2026-04-24 22:33 23.71495 -15.93070 41 ft 7 kts 294°
2026-04-24 22:33 23.71499 -15.93140 41 ft 14 kts 232°
2026-04-24 22:33 23.71401 -15.93195 42 ft 16 kts 202°
2026-04-24 22:33 23.71295 -15.93244 43 ft 17 kts 203°
2026-04-24 22:34 23.71172 -15.93299 44 ft 21 kts 202°
2026-04-24 22:34 23.71031 -15.93363 45 ft 22 kts 203°
2026-04-24 22:34 23.70887 -15.93429 47 ft 23 kts 202°
2026-04-24 22:34 23.70742 -15.93495 47 ft 23 kts 202°
2026-04-24 22:35 23.70626 -15.93548 47 ft 11 kts 202°
2026-04-24 22:35 23.70552 -15.93590 47 ft 13 kts 240°
2026-04-24 22:35 23.70566 -15.93679 48 ft 12 kts 295°
2026-04-24 22:35 23.70611 -15.93736 48 ft 11 kts 352°
2026-04-24 22:36 23.70689 -15.93713 48 ft 17 kts 22°
2026-04-24 22:36 23.70920 -15.93609 49 ft 61 kts 21°
2026-04-24 22:36 23.71516 -15.93339 45 ft 124 kts 22°
2026-04-24 22:36 23.72456 -15.92914 223 ft 158 kts 20°
2026-04-24 22:37 23.73461 -15.92446 710 ft 161 kts 20°
2026-04-24 22:37 23.74500 -15.91953 1275 ft 167 kts 20°
2026-04-24 22:37 23.75545 -15.91414 1894 ft 169 kts 23°
2026-04-24 22:37 23.76647 -15.91094 2322 ft 167 kts 351°
2026-04-24 22:38 23.77640 -15.91669 2762 ft 168 kts 310°
2026-04-24 22:38 23.78037 -15.92902 3027 ft 189 kts 272°
2026-04-24 22:38 23.77588 -15.94347 3264 ft 218 kts 234°
2026-04-24 22:38 23.76379 -15.95351 3932 ft 225 kts 208°
2026-04-24 22:39 23.74948 -15.96001 4658 ft 226 kts 205°
2026-04-24 22:39 23.73487 -15.96624 5237 ft 232 kts 205°
2026-04-24 22:39 23.71936 -15.97290 5626 ft 251 kts 205°
2026-04-24 22:39 23.70281 -15.98008 6193 ft 263 kts 205°
2026-04-24 22:40 23.68586 -15.98749 6998 ft 266 kts 205°
2026-04-24 22:40 23.66893 -15.99495 7879 ft 265 kts 205°
2026-04-24 22:40 23.65642 -16.00053 8479 ft 267 kts 206°
2026-04-24 22:40 23.64470 -16.00839 8956 ft 269 kts 222°
2026-04-24 22:41 23.63130 -16.02257 9666 ft 273 kts 230°
2026-04-24 22:41 23.61897 -16.03839 10376 ft 280 kts 230°
2026-04-24 22:41 23.60598 -16.05501 10801 ft 296 kts 229°
2026-04-24 22:41 23.59686 -16.06638 11015 ft 309 kts 229°
2026-04-24 22:42 23.57685 -16.09074 11412 ft 337 kts 228°
2026-04-24 22:42 23.56074 -16.11004 11701 ft 357 kts 227°
2026-04-24 22:42 23.54374 -16.13026 12211 ft 370 kts 227°
2026-04-24 22:42 23.52620 -16.15107 12975 ft 375 kts 227°
2026-04-24 22:43 23.50878 -16.17172 13811 ft 376 kts 227°
2026-04-24 22:43 23.49102 -16.19275 14600 ft 378 kts 227°
2026-04-24 22:43 23.47321 -16.21384 15293 ft 383 kts 227°
2026-04-24 22:43 23.45531 -16.23502 15953 ft 387 kts 227°
2026-04-24 22:44 23.43696 -16.25674 16620 ft 391 kts 227°
2026-04-24 22:44 23.41855 -16.27851 17277 ft 395 kts 227°
2026-04-24 22:44 23.40009 -16.30034 17916 ft 398 kts 228°
2026-04-24 22:44 23.38133 -16.32251 18537 ft 402 kts 228°
2026-04-24 22:45 23.36241 -16.34485 19137 ft 406 kts 228°
2026-04-24 22:45 23.34326 -16.36746 19721 ft 410 kts 228°
2026-04-24 22:45 23.32394 -16.39025 20304 ft 414 kts 228°
2026-04-24 22:45 23.30433 -16.41339 20894 ft 418 kts 228°
2026-04-24 22:46 23.28460 -16.43665 21479 ft 421 kts 228°
2026-04-24 22:46 23.26476 -16.46003 22051 ft 424 kts 228°
2026-04-24 22:46 23.24489 -16.48343 22602 ft 428 kts 228°
2026-04-24 22:46 23.22457 -16.50735 23146 ft 431 kts 228°
2026-04-24 22:47 23.20436 -16.53114 23664 ft 435 kts 228°
2026-04-24 22:47 23.18385 -16.55526 24169 ft 439 kts 228°
2026-04-24 22:47 23.16317 -16.57956 24660 ft 442 kts 228°
2026-04-24 22:47 23.14233 -16.60406 25134 ft 445 kts 228°
2026-04-24 22:48 23.12130 -16.62875 25605 ft 450 kts 228°
2026-04-24 22:48 23.09992 -16.65385 26120 ft 454 kts 228°
2026-04-24 22:48 23.07865 -16.67880 26683 ft 456 kts 228°
2026-04-24 22:48 23.05717 -16.70397 27240 ft 457 kts 228°
2026-04-24 22:49 23.03563 -16.72921 27720 ft 458 kts 228°
2026-04-24 22:49 23.01417 -16.75435 28285 ft 455 kts 228°
2026-04-24 22:49 22.99284 -16.77931 28863 ft 450 kts 229°
2026-04-24 22:49 22.97177 -16.80396 29505 ft 444 kts 229°
2026-04-24 22:50 22.95094 -16.82831 30191 ft 437 kts 230°
2026-04-24 22:50 22.93046 -16.85224 30783 ft 432 kts 230°
2026-04-24 22:50 22.91033 -16.87577 31266 ft 429 kts 231°
2026-04-24 22:50 22.89004 -16.89948 31698 ft 427 kts 231°
2026-04-24 22:51 22.86996 -16.92294 31995 ft 427 kts 231°
2026-04-24 22:51 22.84985 -16.94643 32011 ft 431 kts 231°
2026-04-24 22:51 22.80888 -16.99423 32022 ft 435 kts 231°
2026-04-24 22:52 22.76775 -17.04213 32020 ft 439 kts 231°
2026-04-24 22:52 22.72617 -17.09051 32020 ft 440 kts 231°
2026-04-24 22:53 22.68456 -17.13889 32020 ft 439 kts 231°
2026-04-24 22:53 22.64307 -17.18708 32020 ft 439 kts 231°
2026-04-24 22:54 22.60164 -17.23517 32017 ft 439 kts 231°
2026-04-24 22:54 22.56012 -17.28331 32020 ft 439 kts 231°
2026-04-24 22:55 22.51862 -17.33138 32020 ft 439 kts 231°
2026-04-24 22:55 22.47698 -17.37957 32020 ft 439 kts 231°
2026-04-24 22:56 22.43543 -17.42761 32020 ft 439 kts 231°
2026-04-24 22:56 22.39392 -17.47555 32019 ft 439 kts 231°
2026-04-24 22:57 22.35250 -17.52335 32020 ft 439 kts 231°
2026-04-24 22:57 22.31076 -17.57147 32020 ft 439 kts 231°
2026-04-24 22:58 22.26936 -17.61916 32020 ft 439 kts 231°
2026-04-24 22:58 22.22774 -17.66705 32027 ft 439 kts 231°
2026-04-24 22:59 22.18609 -17.71492 32022 ft 439 kts 231°
2026-04-24 23:00 22.12354 -17.78674 32021 ft 439 kts 231°
2026-04-24 23:00 22.08174 -17.83469 32021 ft 439 kts 231°
2026-04-24 23:01 22.04002 -17.88250 32021 ft 439 kts 231°
2026-04-24 23:01 21.99834 -17.93022 32021 ft 439 kts 231°
2026-04-24 23:02 21.95664 -17.97792 32020 ft 439 kts 231°
2026-04-24 23:02 21.91507 -18.02542 32022 ft 439 kts 231°
2026-04-24 23:03 21.87426 -18.07202 32019 ft 439 kts 231°
2026-04-24 23:03 21.83321 -18.11885 32020 ft 439 kts 231°
2026-04-24 23:04 21.79147 -18.16641 32018 ft 439 kts 231°
2026-04-24 23:04 21.74967 -18.21401 32020 ft 439 kts 231°
2026-04-24 23:05 21.70789 -18.26155 32018 ft 439 kts 231°
2026-04-24 23:05 21.66593 -18.30924 31961 ft 441 kts 231°
2026-04-24 23:06 21.62390 -18.35696 31936 ft 440 kts 231°
2026-04-24 23:06 21.58199 -18.40451 31938 ft 440 kts 231°
2026-04-24 23:07 21.54020 -18.45189 31938 ft 440 kts 231°
2026-04-24 23:07 21.49826 -18.49938 31939 ft 440 kts 231°
2026-04-24 23:08 21.45628 -18.54688 31939 ft 440 kts 231°
2026-04-24 23:08 21.41424 -18.59441 31938 ft 440 kts 231°
2026-04-24 23:09 21.37211 -18.64199 32022 ft 441 kts 231°
2026-04-24 23:09 21.35107 -18.66573 32268 ft 441 kts 230°
2026-04-24 23:09 21.32778 -18.68714 32586 ft 447 kts 219°
2026-04-24 23:09 21.30136 -18.70425 32924 ft 449 kts 213°
2026-04-24 23:10 21.27388 -18.71985 33246 ft 449 kts 213°
2026-04-24 23:10 21.24629 -18.73564 33542 ft 447 kts 214°
2026-04-24 23:10 21.21940 -18.75166 33810 ft 446 kts 214°
2026-04-24 23:10 21.19236 -18.76822 33933 ft 448 kts 215°
2026-04-24 23:11 21.16563 -18.78472 33945 ft 449 kts 215°
2026-04-24 23:11 21.11150 -18.81797 33940 ft 449 kts 215°
2026-04-24 23:12 21.05796 -18.85068 33939 ft 443 kts 215°
2026-04-24 23:12 21.00486 -18.88311 33939 ft 436 kts 216°
2026-04-24 23:13 20.95307 -18.91474 33942 ft 429 kts 216°
2026-04-24 23:13 20.90136 -18.94633 33939 ft 428 kts 216°
2026-04-24 23:14 20.84992 -18.97771 33940 ft 430 kts 216°
2026-04-24 23:14 20.79795 -19.00938 33940 ft 433 kts 216°
2026-04-24 23:15 20.74576 -19.04115 33940 ft 435 kts 216°
2026-04-24 23:15 20.69318 -19.07313 33939 ft 437 kts 216°
2026-04-24 23:16 20.64064 -19.10506 33938 ft 438 kts 216°
2026-04-24 23:16 20.58772 -19.13719 33937 ft 440 kts 216°
2026-04-24 23:17 20.53462 -19.16941 33939 ft 442 kts 216°
2026-04-24 23:17 20.48133 -19.20172 33938 ft 444 kts 216°
2026-04-24 23:18 20.42767 -19.23422 33940 ft 444 kts 216°
2026-04-24 23:18 20.37423 -19.26657 33938 ft 444 kts 216°
2026-04-24 23:19 20.32081 -19.29888 33939 ft 444 kts 216°
2026-04-24 23:19 20.26756 -19.33106 33939 ft 444 kts 216°
2026-04-24 23:20 20.21411 -19.36334 33939 ft 444 kts 216°
2026-04-24 23:20 20.16061 -19.39562 33939 ft 444 kts 216°
2026-04-24 23:21 20.10712 -19.42787 33938 ft 444 kts 216°
2026-04-24 23:21 20.05368 -19.46006 33939 ft 444 kts 216°
2026-04-24 23:22 20.00025 -19.49222 33939 ft 444 kts 216°
2026-04-24 23:22 19.94654 -19.52453 33939 ft 444 kts 216°
2026-04-24 23:23 19.89326 -19.55655 33937 ft 444 kts 216°
2026-04-24 23:23 19.83982 -19.58864 33928 ft 443 kts 216°
2026-04-24 23:24 19.78632 -19.62074 33924 ft 443 kts 216°
2026-04-24 23:24 19.73268 -19.65290 33922 ft 444 kts 215°
2026-04-24 23:25 19.67927 -19.68490 33941 ft 444 kts 215°
2026-04-24 23:25 19.62569 -19.71697 33939 ft 444 kts 215°
2026-04-24 23:26 19.57626 -19.75394 33956 ft 431 kts 230°
2026-04-24 23:26 19.53663 -19.80115 33946 ft 429 kts 234°
2026-04-24 23:27 19.49715 -19.84810 33939 ft 430 kts 233°
2026-04-24 23:27 19.45678 -19.89450 33940 ft 430 kts 232°
2026-04-24 23:28 19.41648 -19.94082 33942 ft 430 kts 233°
2026-04-24 23:28 19.37616 -19.98722 33941 ft 430 kts 233°
2026-04-24 23:29 19.33582 -20.03361 33942 ft 430 kts 233°
2026-04-24 23:29 19.29553 -20.07990 33940 ft 430 kts 233°
2026-04-24 23:30 19.25504 -20.12637 33938 ft 430 kts 233°
2026-04-24 23:30 19.21469 -20.17266 33937 ft 430 kts 233°
2026-04-24 23:31 19.17435 -20.21890 33937 ft 430 kts 233°
2026-04-24 23:31 19.13396 -20.26515 33937 ft 430 kts 233°
2026-04-24 23:32 19.09371 -20.31121 33940 ft 430 kts 233°
2026-04-24 23:32 19.05333 -20.35738 33939 ft 429 kts 233°
2026-04-24 23:33 19.01296 -20.40350 33936 ft 427 kts 233°
2026-04-24 23:33 18.97309 -20.44898 33938 ft 420 kts 233°
2026-04-24 23:34 18.93387 -20.49372 33936 ft 413 kts 233°
2026-04-24 23:34 18.89510 -20.53793 33930 ft 406 kts 234°
2026-04-24 23:35 18.85707 -20.58127 33917 ft 402 kts 234°
2026-04-24 23:35 18.81941 -20.62417 33911 ft 403 kts 234°
2026-04-24 23:36 18.78120 -20.66764 33931 ft 404 kts 233°
2026-04-24 23:36 18.74319 -20.71081 33943 ft 405 kts 233°
2026-04-24 23:37 18.70496 -20.75422 33941 ft 404 kts 233°
2026-04-24 23:37 18.64781 -20.81908 33940 ft 404 kts 233°
2026-04-24 23:38 18.60988 -20.86210 33939 ft 404 kts 233°
2026-04-24 23:38 18.57165 -20.90542 33942 ft 404 kts 233°
2026-04-24 23:39 18.53344 -20.94870 33939 ft 407 kts 234°
2026-04-24 23:39 18.49471 -20.99253 33940 ft 410 kts 234°
2026-04-24 23:40 18.45582 -21.03650 33940 ft 413 kts 234°
2026-04-24 23:40 18.41669 -21.08072 33941 ft 416 kts 234°
2026-04-24 23:41 18.37738 -21.12510 33940 ft 419 kts 235°
2026-04-24 23:41 18.33758 -21.16999 33939 ft 419 kts 235°
2026-04-24 23:42 18.29811 -21.21448 33936 ft 419 kts 235°
2026-04-24 23:42 18.25855 -21.25905 33939 ft 419 kts 235°
2026-04-24 23:43 18.21897 -21.30361 33939 ft 419 kts 235°
2026-04-24 23:43 18.17938 -21.34816 33939 ft 419 kts 235°
2026-04-24 23:44 18.13975 -21.39270 33939 ft 419 kts 235°
2026-04-24 23:44 18.10015 -21.43719 33939 ft 419 kts 235°
2026-04-24 23:45 18.06040 -21.48181 33938 ft 419 kts 235°
2026-04-24 23:45 18.02091 -21.52612 33936 ft 418 kts 235°
2026-04-24 23:46 17.98122 -21.57062 33934 ft 419 kts 235°
2026-04-24 23:46 17.94120 -21.61548 33935 ft 423 kts 235°
2026-04-24 23:47 17.90104 -21.66041 33894 ft 421 kts 234°
2026-04-24 23:47 17.88126 -21.68245 33627 ft 412 kts 234°
2026-04-24 23:47 17.86204 -21.70385 33375 ft 401 kts 234°
2026-04-24 23:48 17.84312 -21.72501 33130 ft 401 kts 234°
2026-04-24 23:48 17.82396 -21.74656 32898 ft 410 kts 234°
2026-04-24 23:48 17.80432 -21.76862 32654 ft 421 kts 234°
2026-04-24 23:48 17.78408 -21.79127 32314 ft 428 kts 234°
2026-04-24 23:49 17.76371 -21.81397 31839 ft 430 kts 233°
2026-04-24 23:49 17.74380 -21.83611 31291 ft 426 kts 233°
2026-04-24 23:49 17.72429 -21.85781 30779 ft 423 kts 233°
2026-04-24 23:49 17.70431 -21.88007 30353 ft 419 kts 233°
2026-04-24 23:50 17.68451 -21.90215 29894 ft 414 kts 233°
2026-04-24 23:50 17.66495 -21.92394 29413 ft 411 kts 233°
2026-04-24 23:50 17.64584 -21.94577 28948 ft 406 kts 234°
2026-04-24 23:50 17.62747 -21.96787 28468 ft 403 kts 235°
2026-04-24 23:51 17.60953 -21.99009 27990 ft 400 kts 235°
2026-04-24 23:51 17.59173 -22.01233 27526 ft 398 kts 235°
2026-04-24 23:51 17.57409 -22.03433 27065 ft 395 kts 235°
2026-04-24 23:51 17.55650 -22.05621 26601 ft 393 kts 234°
2026-04-24 23:52 17.53898 -22.07797 26129 ft 391 kts 234°
2026-04-24 23:52 17.52155 -22.09960 25666 ft 389 kts 234°
2026-04-24 23:52 17.50424 -22.12108 25212 ft 387 kts 234°
2026-04-24 23:52 17.48688 -22.14260 24752 ft 384 kts 234°
2026-04-24 23:53 17.46987 -22.16369 24297 ft 382 kts 233°
2026-04-24 23:53 17.45285 -22.18478 23841 ft 380 kts 233°
2026-04-24 23:53 17.43593 -22.20576 23390 ft 378 kts 233°
2026-04-24 23:53 17.41910 -22.22660 22940 ft 375 kts 233°
2026-04-24 23:54 17.40225 -22.24746 22489 ft 373 kts 233°
2026-04-24 23:54 17.38574 -22.26790 22047 ft 371 kts 233°
2026-04-24 23:54 17.36911 -22.28848 21597 ft 368 kts 233°
2026-04-24 23:54 17.35284 -22.30860 21160 ft 366 kts 232°
2026-04-24 23:55 17.33641 -22.32893 20715 ft 363 kts 232°
2026-04-24 23:55 17.32030 -22.34884 20278 ft 361 kts 232°
2026-04-24 23:55 17.30422 -22.36871 19843 ft 359 kts 232°
2026-04-24 23:55 17.28823 -22.38848 19409 ft 356 kts 232°
2026-04-24 23:56 17.27232 -22.40813 18977 ft 354 kts 232°
2026-04-24 23:56 17.25645 -22.42772 18550 ft 351 kts 232°
2026-04-24 23:56 17.24078 -22.44707 18124 ft 349 kts 232°
2026-04-24 23:56 17.22531 -22.46616 17704 ft 346 kts 231°
2026-04-24 23:57 17.20971 -22.48541 17284 ft 344 kts 231°
2026-04-24 23:57 17.19448 -22.50420 16875 ft 341 kts 231°
2026-04-24 23:57 17.17915 -22.52309 16463 ft 338 kts 231°
2026-04-24 23:57 17.16403 -22.54174 16050 ft 336 kts 231°
2026-04-24 23:58 17.14912 -22.56012 15638 ft 334 kts 231°
2026-04-24 23:58 17.13422 -22.57848 15223 ft 332 kts 231°
2026-04-24 23:58 17.11934 -22.59680 14823 ft 329 kts 231°
2026-04-24 23:58 17.10475 -22.61477 14426 ft 327 kts 230°
2026-04-24 23:59 17.09016 -22.63273 14029 ft 324 kts 230°
2026-04-24 23:59 17.07564 -22.65061 13632 ft 322 kts 229°
2026-04-24 23:59 17.06118 -22.66840 13229 ft 320 kts 229°
2026-04-24 23:59 17.04698 -22.68586 12828 ft 320 kts 229°
2026-04-25 00:00 17.03238 -22.70380 12426 ft 332 kts 228°
2026-04-25 00:00 17.01736 -22.72227 12063 ft 334 kts 229°
2026-04-25 00:00 17.00255 -22.74047 11870 ft 325 kts 229°
2026-04-25 00:00 16.98814 -22.75819 11610 ft 318 kts 229°
2026-04-25 00:01 16.97401 -22.77556 11357 ft 312 kts 229°
2026-04-25 00:01 16.96019 -22.79253 11168 ft 303 kts 229°
2026-04-25 00:01 16.94672 -22.80907 11025 ft 293 kts 229°
2026-04-25 00:01 16.93388 -22.82483 10891 ft 283 kts 229°
2026-04-25 00:02 16.92073 -22.83937 10742 ft 271 kts 212°
2026-04-25 00:02 16.90369 -22.84579 10484 ft 261 kts 185°
2026-04-25 00:02 16.88546 -22.84658 9995 ft 266 kts 178°
2026-04-25 00:02 16.86775 -22.84632 9646 ft 265 kts 177°
2026-04-25 00:03 16.84944 -22.84599 9303 ft 264 kts 178°
2026-04-25 00:03 16.83119 -22.84572 8987 ft 261 kts 178°
2026-04-25 00:03 16.81337 -22.84552 8713 ft 258 kts 178°
2026-04-25 00:03 16.79558 -22.84535 8403 ft 258 kts 178°
2026-04-25 00:04 16.77766 -22.84520 8113 ft 256 kts 178°
2026-04-25 00:04 16.76011 -22.84506 7842 ft 255 kts 178°
2026-04-25 00:04 16.74250 -22.84493 7587 ft 254 kts 178°
2026-04-25 00:04 16.72479 -22.84480 7321 ft 254 kts 178°
2026-04-25 00:05 16.70735 -22.84467 7055 ft 253 kts 178°
2026-04-25 00:05 16.68979 -22.84455 6787 ft 252 kts 178°
2026-04-25 00:05 16.67231 -22.84442 6526 ft 250 kts 178°
2026-04-25 00:05 16.65508 -22.84430 6271 ft 250 kts 178°
2026-04-25 00:06 16.63768 -22.84417 6013 ft 249 kts 178°
2026-04-25 00:06 16.62043 -22.84405 5757 ft 249 kts 178°
2026-04-25 00:06 16.60336 -22.84393 5504 ft 248 kts 178°
2026-04-25 00:06 16.58620 -22.84381 5249 ft 247 kts 178°
2026-04-25 00:07 16.56955 -22.84597 4996 ft 239 kts 206°
2026-04-25 00:07 16.55799 -22.85707 4814 ft 223 kts 246°
2026-04-25 00:07 16.55329 -22.87254 4417 ft 226 kts 261°
2026-04-25 00:07 16.55098 -22.88848 4123 ft 220 kts 266°
2026-04-25 00:08 16.54959 -22.90423 3804 ft 218 kts 268°
2026-04-25 00:08 16.54871 -22.92008 3544 ft 218 kts 272°
2026-04-25 00:08 16.55319 -22.93425 3333 ft 209 kts 316°
2026-04-25 00:08 16.56549 -22.94157 3093 ft 206 kts 348°
2026-04-25 00:09 16.57893 -22.94390 2969 ft 189 kts 354°
2026-04-25 00:09 16.59127 -22.94513 2848 ft 170 kts 356°
2026-04-25 00:09 16.60263 -22.94594 2572 ft 161 kts 358°
2026-04-25 00:09 16.61363 -22.94654 2201 ft 158 kts 358°
2026-04-25 00:10 16.62449 -22.94700 1883 ft 152 kts 359°
2026-04-25 00:10 16.63493 -22.94735 1827 ft 150 kts 359°
2026-04-25 00:10 16.64536 -22.94763 1887 ft 153 kts 359°
2026-04-25 00:10 16.65587 -22.94786 1878 ft 147 kts 359°
2026-04-25 00:11 16.66560 -22.94815 2023 ft 134 kts 359°
2026-04-25 00:11 16.67168 -22.94832 2276 ft 129 kts
2026-04-25 00:11 16.68342 -22.94837 2663 ft 129 kts
2026-04-25 00:11 16.69235 -22.94844 2942 ft 129 kts
2026-04-25 00:12 16.70128 -22.94836 3192 ft 130 kts
2026-04-25 00:12 16.71046 -22.94786 3379 ft 135 kts
2026-04-25 00:12 16.71980 -22.94707 3232 ft 143 kts
2026-04-25 00:12 16.72952 -22.94650 3341 ft 132 kts
2026-04-25 00:13 16.73833 -22.94704 3120 ft 110 kts
2026-04-25 00:13 16.74200 -22.94698 3103 ft 20 kts 360°